Location: Bacharowice
(49.9333°N, 19.5833°E)
Time: 06:39:59
(UTC+00:00)

Cosmos 2344 - Pass Details

Date: 26 September 2021
Orbit: 1235 x 3007 km, 63.3° (Epoch: 19 October)

Event Time Altitude Azimuth Distance (km) Brightness Sun altitude
Rises 16:43:50 0° 257° (WSW) 4,180 8.3 -2.9°
Reaches altitude 10° 16:46:41 10° 265° (W) 3,201 7.7 -3.4°
Maximum altitude 16:53:41 43° 336° (NNW) 1,770 4.7 -4.5°
Drops below altitude 10° 17:01:47 10° 47° (NE) 3,691 5.6 -5.8°
Sets 17:05:22 0° 54° (NE) 4,890 6.2 -6.4°
